| time (UTC) | temp F | wind direction | speed MPH | gust MPH | rain 1hr in | rain 24hr in | rain mn in | humidity % | barometer mb |
| 20260508090022 | 60 | 139 | 0.0 | 3.0 | 0.00 | 0.00 | 0.00 | 86 | 1015.6 |
| 20260508084521 | 60 | 109 | 0.0 | 4.0 | 0.00 | 0.00 | 0.00 | 86 | 1015.7 |
| 20260508083029 | 61 | 101 | 1.0 | 4.0 | 0.00 | 0.00 | 0.00 | 86 | 1015.8 |
| 20260508081518 | 61 | 115 | 3.0 | 5.0 | 0.00 | 0.00 | 0.00 | 86 | 1016.1 |
| 20260508080016 | 61 | 105 | 3.0 | 5.0 | 0.00 | 0.00 | 0.00 | 86 | 1016.3 |
| 20260508074515 | 61 | 91 | 2.0 | 5.0 | 0.00 | 0.00 | 0.00 | 86 | 1016.3 |
| 20260508073016 | 61 | 45 | 0.0 | 4.0 | 0.00 | 0.00 | 0.00 | 86 | 1016.3 |
| 20260508071515 | 61 | 51 | 0.0 | 4.0 | 0.00 | 0.00 | 0.00 | 85 | 1016.4 |
| 20260508070014 | 61 | 95 | 0.0 | 0.0 | 0.00 | 0.00 | 0.00 | 85 | 1016.6 |
| 20260508064516 | 61 | 258 | 0.0 | 4.0 | 0.00 | 0.00 | 0.00 | 85 | 1016.6 |
| 20260508063009 | 61 | 126 | 2.0 | 5.0 | 0.00 | 0.00 | 0.00 | 85 | 1016.7 |
| 20260508061509 | 61 | 139 | 3.0 | 6.0 | 0.00 | 0.00 | 0.00 | 85 | 1016.7 |
| 20260508060110 | 61 | 97 | 2.0 | 5.0 | 0.00 | 0.00 | 0.00 | 85 | 1016.6 |
| 20260508054508 | 61 | 159 | 2.0 | 7.0 | 0.00 | 0.00 | 0.00 | 84 | 1016.6 |
| 20260508053007 | 61 | 166 | 2.0 | 6.0 | 0.00 | 0.00 | 0.00 | 84 | 1016.7 |
| 20260508051506 | 61 | 157 | 1.0 | 6.0 | 0.00 | 0.00 | 0.00 | 83 | 1016.7 |
| 20260508050007 | 61 | 188 | 2.0 | 6.0 | 0.00 | 0.00 | 0.00 | 82 | 1016.6 |
| 20260508044505 | 62 | 195 | 1.0 | 5.0 | 0.00 | 0.00 | 0.00 | 81 | 1016.4 |
| 20260508043005 | 63 | 238 | 0.0 | 6.0 | 0.00 | 0.00 | 0.00 | 80 | 1016.2 |
| 20260508041508 | 63 | 197 | 0.0 | 5.0 | 0.00 | 0.00 | 0.00 | 78 | 1015.9 |
| 20260508040005 | 64 | 180 | 1.0 | 5.0 | 0.00 | 0.00 | 0.00 | 77 | 1015.7 |
| 20260508034502 | 65 | 166 | 4.0 | 8.0 | 0.00 | 0.00 | 0.00 | 75 | 1015.7 |
| 20260508033004 | 66 | 205 | 0.0 | 4.0 | 0.00 | 0.00 | 0.00 | 74 | 1015.4 |
| 20260508031503 | 67 | 197 | 1.0 | 7.0 | 0.00 | 0.00 | 0.00 | 72 | 1015.2 |
| 20260508030119 | 67 | 196 | 1.0 | 9.0 | 0.00 | 0.00 | 0.00 | 70 | 1015.0 |
| 20260508024603 | 68 | 190 | 2.0 | 8.0 | 0.00 | 0.00 | 0.00 | 69 | 1014.7 |
| 20260508023100 | 69 | 165 | 4.0 | 8.0 | 0.00 | 0.00 | 0.00 | 68 | 1014.4 |
| 20260508021559 | 70 | 176 | 3.0 | 9.0 | 0.00 | 0.00 | 0.00 | 67 | 1014.2 |
| 20260508020107 | 71 | 171 | 1.0 | 9.0 | 0.00 | 0.00 | 0.00 | 65 | 1014.1 |
| 20260508014558 | 72 | 159 | 4.0 | 9.0 | 0.00 | 0.00 | 0.00 | 64 | 1014.1 |
| 20260508013057 | 72 | 149 | 6.0 | 10.0 | 0.00 | 0.00 | 0.00 | 63 | 1014.0 |
| 20260508011556 | 74 | 209 | 6.0 | 10.0 | 0.00 | 0.00 | 0.00 | 60 | 1014.1 |
| 20260508004554 | 77 | 197 | 4.0 | 10.0 | 0.00 | 0.00 | 0.00 | 57 | 1014.0 |
| 20260508003102 | 77 | 243 | 4.0 | 9.0 | 0.00 | 0.00 | 0.00 | 55 | 1014.0 |
| 20260508001556 | 78 | 207 | 3.0 | 8.0 | 0.00 | 0.00 | 0.00 | 55 | 1013.9 |
| 20260508000051 | 78 | 190 | 2.0 | 10.0 | 0.00 | 0.00 | 0.00 | 55 | 1013.7 |
| 20260507234549 | 79 | 260 | 4.0 | 11.0 | 0.00 | 0.00 | 0.00 | 54 | 1013.9 |
| 20260507233048 | 79 | 179 | 5.0 | 10.0 | 0.00 | 0.00 | 0.00 | 54 | 1013.9 |
| 20260507231548 | 79 | 144 | 4.0 | 9.0 | 0.00 | 0.00 | 0.00 | 53 | 1013.9 |
| 20260507230104 | 79 | 253 | 3.0 | 10.0 | 0.00 | 0.00 | 0.00 | 54 | 1013.8 |
| 20260507224546 | 79 | 177 | 6.0 | 11.0 | 0.00 | 0.00 | 0.00 | 53 | 1013.9 |
| 20260507223132 | 79 | 216 | 3.0 | 9.0 | 0.00 | 0.00 | 0.00 | 53 | 1013.9 |
| 20260507221544 | 79 | 193 | 5.0 | 10.0 | 0.00 | 0.00 | 0.00 | 52 | 1013.9 |
| 20260507220043 | 79 | 194 | 6.0 | 11.0 | 0.00 | 0.00 | 0.00 | 53 | 1014.0 |
| 20260507214551 | 79 | 149 | 7.0 | 11.0 | 0.00 | 0.00 | 0.00 | 53 | 1014.2 |
| 20260507213041 | 80 | 144 | 4.0 | 11.0 | 0.00 | 0.00 | 0.00 | 52 | 1014.3 |
| 20260507211539 | 81 | 234 | 4.0 | 12.0 | 0.00 | 0.00 | 0.00 | 51 | 1014.4 |
| 20260507210043 | 80 | 238 | 4.0 | 11.0 | 0.00 | 0.00 | 0.00 | 53 | 1014.4 |
| 20260507204541 | 79 | 157 | 10.0 | 15.0 | 0.00 | 0.00 | 0.00 | 53 | 1014.6 |
| 20260507203040 | 81 | 229 | 4.0 | 10.0 | 0.00 | 0.00 | 0.00 | 51 | 1014.6 |
| 20260507201539 | 81 | 186 | 3.0 | 11.0 | 0.00 | 0.00 | 0.00 | 51 | 1014.6 |
| 20260507200049 | 79 | 149 | 6.0 | 12.0 | 0.00 | 0.00 | 0.00 | 52 | 1014.7 |
| 20260507194531 | 80 | 224 | 3.0 | 9.0 | 0.00 | 0.00 | 0.00 | 50 | 1014.7 |
| 20260507193041 | 79 | 272 | 4.0 | 7.0 | 0.00 | 0.00 | 0.00 | 50 | 1014.8 |
| 20260507191527 | 79 | 223 | 0.0 | 8.0 | 0.00 | 0.00 | 0.00 | 52 | 1014.9 |
| 20260507190032 | 76 | 355 | 2.0 | 7.0 | 0.00 | 0.00 | 0.00 | 52 | 1015.2 |
| 20260507184520 | 76 | 249 | 3.0 | 8.0 | 0.00 | 0.00 | 0.00 | 52 | 1015.4 |
| 20260507183031 | 75 | 208 | 3.0 | 7.0 | 0.00 | 0.00 | 0.00 | 53 | 1015.5 |
| 20260507181513 | 74 | 286 | 2.0 | 8.0 | 0.00 | 0.00 | 0.00 | 56 | 1015.6 |
| 20260507180009 | 73 | 216 | 2.0 | 7.0 | 0.00 | 0.00 | 0.00 | 59 | 1015.7 |
| 20260507174506 | 73 | 245 | 3.0 | 8.0 | 0.00 | 0.00 | 0.00 | 60 | 1016.0 |
| 20260507173005 | 71 | 247 | 1.0 | 6.0 | 0.00 | 0.00 | 0.00 | 63 | 1016.0 |
| 20260507171604 | 69 | 149 | 1.0 | 6.0 | 0.00 | 0.00 | 0.00 | 63 | 1016.1 |
| 20260507170055 | 67 | 132 | 2.0 | 7.0 | 0.00 | 0.00 | 0.00 | 67 | 1016.2 |
| 20260507164551 | 67 | 179 | 4.0 | 8.0 | 0.00 | 0.00 | 0.00 | 70 | 1016.4 |
| 20260507163046 | 67 | 95 | 2.0 | 7.0 | 0.00 | 0.00 | 0.00 | 68 | 1016.6 |
| 20260507161551 | 66 | 149 | 1.0 | 5.0 | 0.00 | 0.00 | 0.00 | 73 | 1016.6 |
| 20260507160041 | 64 | 251 | 3.0 | 6.0 | 0.00 | 0.00 | 0.00 | 74 | 1016.6 |
| 20260507154533 | 64 | 250 | 2.0 | 7.0 | 0.00 | 0.00 | 0.00 | 76 | 1016.8 |
| 20260507153034 | 62 | 74 | 0.0 | 5.0 | 0.00 | 0.00 | 0.00 | 79 | 1016.6 |
| 20260507151527 | 61 | 255 | 2.0 | 6.0 | 0.00 | 0.00 | 0.00 | 85 | 1016.5 |
| 20260507150020 | 59 | 261 | 0.0 | 2.0 | 0.00 | 0.00 | 0.00 | 88 | 1016.5 |
| 20260507144522 | 58 | 53 | 0.0 | 0.0 | 0.00 | 0.00 | 0.00 | 89 | 1016.5 |
| 20260507143011 | 57 | 70 | 0.0 | 0.0 | 0.00 | 0.00 | 0.00 | 90 | 1016.5 |
| 20260507141507 | 55 | 16 | 0.0 | 0.0 | 0.00 | 0.00 | 0.00 | 91 | 1016.6 |
| 20260507140002 | 53 | 14 | 0.0 | 0.0 | 0.00 | 0.00 | 0.00 | 90 | 1016.4 |
| 20260507134604 | 52 | 43 | 0.0 | 0.0 | 0.00 | 0.00 | 0.00 | 90 | 1016.4 |
| 20260507133056 | 52 | 32 | 0.0 | 0.0 | 0.00 | 0.00 | 0.00 | 90 | 1016.4 |
| 20260507131553 | 52 | 32 | 0.0 | 0.0 | 0.00 | 0.00 | 0.00 | 89 | 1016.5 |
| 20260507130103 | 52 | 357 | 0.0 | 0.0 | 0.00 | 0.00 | 0.00 | 89 | 1016.2 |
| 20260507124613 | 52 | 1 | 0.0 | 0.0 | 0.00 | 0.00 | 0.00 | 89 | 1016.1 |
| 20260507123105 | 52 | 20 | 0.0 | 0.0 | 0.00 | 0.00 | 0.00 | 88 | 1016.0 |
| 20260507121558 | 52 | 27 | 0.0 | 0.0 | 0.00 | 0.00 | 0.00 | 88 | 1016.0 |
| 20260507120048 | 52 | 27 | 0.0 | 0.0 | 0.00 | 0.00 | 0.00 | 88 | 1016.1 |
| 20260507114550 | 52 | 27 | 0.0 | 0.0 | 0.00 | 0.00 | 0.00 | 88 | 1016.0 |
| 20260507113045 | 53 | 27 | 0.0 | 0.0 | 0.00 | 0.00 | 0.00 | 87 | 1016.0 |
| 20260507111543 | 53 | 27 | 0.0 | 0.0 | 0.00 | 0.00 | 0.00 | 87 | 1016.0 |
| 20260507110042 | 53 | 27 | 0.0 | 0.0 | 0.00 | 0.00 | 0.00 | 87 | 1016.1 |
| 20260507104540 | 53 | 27 | 0.0 | 0.0 | 0.00 | 0.00 | 0.00 | 87 | 1016.1 |
| 20260507103038 | 54 | 27 | 0.0 | 0.0 | 0.00 | 0.00 | 0.00 | 87 | 1016.2 |
| 20260507101541 | 54 | 27 | 0.0 | 0.0 | 0.00 | 0.00 | 0.00 | 86 | 1016.4 |
| 20260507100047 | 54 | 27 | 0.0 | 0.0 | 0.00 | 0.00 | 0.00 | 86 | 1016.5 |
| 20260507094533 | 54 | 27 | 0.0 | 0.0 | 0.00 | 0.00 | 0.00 | 86 | 1016.5 |
| 20260507093031 | 55 | 27 | 0.0 | 0.0 | 0.00 | 0.00 | 0.00 | 86 | 1016.7 |
| 20260507091530 | 55 | 10 | 0.0 | 0.0 | 0.00 | 0.00 | 0.00 | 85 | 1016.7 |